GONETS-M 23

导读

GONETS-M 23是由独联体(CIS)发射的低轨通信卫星,于2022年10月22日发射入轨,隶属于“GONETS-M”卫星系列,该系列是俄罗斯/独联体发展的民用低轨卫星通信系统,主要为俄罗斯及周边地区提供全天候移动通信、数据传输等服务,可覆盖偏远地区,支持地面用户的语音、数据交互,补充了地面通信网络覆盖盲区,服务于交通运输、应急通信等多领域需求,是独联体低轨通信星座建设的重要组成部分。

基本信息
目录编号:
54150
目录名称:
GONETS-M 23
国际标识:
2022-139A
轨道中心:
EARTH
卫星名称:
GONETS-M 23
卫星全名:
--
卫星状态:
在轨 (已飞行1423 天)
发射日期:
2022-10-22 UTC
国别 :
俄罗斯(独联体) (CIS)
星等 :
--
该卫星已列入 空间交会检测服务 Space Conjunction Data Service (SCDS) ,当前飞行风险评估等级: 无高风险
轨道信息
数据来源 国际轨道数据 AOE轨道数据
星历时间 2026-09-14T05:21:14+0800
9小时前
查看轨道信息
2026-09-12T23:00:00+0800
1天前
查看轨道信息
半长轴 7872.499km 7872.496km
偏心率 0.0021846 0.0021786
轨道倾角 82.504° 82.503°
近地点辐角 31.463° 34.300°
升交点赤经 293.179° 293.964°
平近点角 328.775° 69.707°
近地点 1477.163km 1477.207km
远地点 1511.561km 1511.511km
周期 115.859分钟 115.859分钟
每日圈数 12.428934 12.42894
详细信息
使用方式:
暂无
2D轨道图
3D轨道图
轨道高度分析图
轨道倾角分析图
轨道综合分析图
查看轨道综合分析图
交会数据列表
事件ID 空间交会对象 最接近时刻(TCA) 交会距离 交会风险概率(CRP) 交会风险指数(CRI) 操作
CDM_260916-000801-358905-415024
2026-09-16T
00:08:18+0000
1.788 km
极远距离
3.482915E-6 低风险 0.46
与全量物体交会距离演化趋势 订阅飞行安全评估服务
与全量物体交会风险概率演化趋势 订阅飞行安全评估服务